Weather Roundup
Issued by NWS

Home | Current Version | Previous Version | Graphics & Text | Print | Product List | Glossary Off
Versions: 1 2 3 4 5 6 7 8 9 10 11 12 13 14 15 16 17 18 19 20 21 22 23 24 25 26 27 28 29 30 31 32 33 34 35 36 37 38 39 40 41 42 43 44 45 46 47 48 49 50

062
NZUS93 KARX 081959
HRRWXR

CURRENT HOURLY OBSERVATIONS ACROSS
MUCH OF THE UPPER MISSISSIPPI VALLEY
NATIONAL WEATHER SERVICE LA CROSSE WI
200 PM CST THU DEC 08 2016


...SOUTHEAST MINNESOTA...


CITY           SKY/WX    TMP DP  RH WIND       PRES   REMARKS
ROCHESTER      FLURRIES  21  16  81 NW18      30.35R WCI   6
ROCHESTER/MAYO CLOUDY    22  18  84 W13G22    30.36R WCI  10
WINONA         FLURRIES  27  19  74 NW10G18   30.36R WCI  17
AUSTIN         LGT SNOW  19  12  73 NW16G26   30.38S WCI   5
ALBERT LEA     LGT SNOW  21  16  79 NW14G20   30.40S WCI   8
DODGE CENTER   FLURRIES  19  16  86 W17G24    30.36R WCI   4
PRESTON        LGT SNOW  20  15  81 NW18      30.35R WCI   5
OWATONNA       LGT SNOW  21  14  73 W16       30.39S WCI   7
FARIBAULT      NOT AVBL
$$

...ELSEWHERE IN MINNESOTA...


CITY           SKY/WX    TMP DP  RH WIND       PRES   REMARKS
MINNEAPOLIS    FLURRIES  23  12  62 NW16      30.39R WCI  10
INTNL FALLS    NOT AVBL
DULUTH         NOT AVBL
RED WING       FLURRIES  25  14  63 NW14G21   30.35R WCI  13
REDWOOD FALLS  CLOUDY    19   9  65 NW16G25   30.48S WCI   4
MANKATO        NOT AVBL
WORTHINGTON    NOT AVBL
FAIRMONT       CLOUDY    19  10  68 NW23G30   30.46R WCI   2
$$

...SOUTHWEST WISCONSIN...


CITY           SKY/WX    TMP DP  RH WIND       PRES   REMARKS
LA CROSSE      FLURRIES  26  16  65 NW14G24   30.34R WCI  14
PRAIRIE DU CHI CLOUDY    24  14  65 NW17G26   30.36S WCI  11
BOSCOBEL       CLOUDY    25  16  68 W9        30.36R WCI  15
LONE ROCK      NOT AVBL
PLATTEVILLE    CLOUDY    22  17  80 W16G24    30.33R WCI   8
FORT MC COY    FLURRIES  24  17  75 W12G17    30.31R WCI  13
MAUSTON-NEW LI CLOUDY    24  17  75 W15       30.27R WCI  12
VIROQUA        CLOUDY    22  16  78 W15G22    30.29R WCI   8
WIS DELLS      CLOUDY    23  16  74 NW12      30.27R WCI  11
$$

...ELSEWHERE IN WISCONSIN...


CITY           SKY/WX    TMP DP  RH WIND       PRES   REMARKS
MILWAUKEE      PTSUNNY   25  14  63 W24G31    30.23R WCI   9
MADISON        FLURRIES  22  14  71 W12G22    30.28R WCI  10
GREEN BAY      FLURRIES  33  21  61 NW15      30.15R WCI  23
EAU CLAIRE     CLOUDY    25  15  66 NW13      30.30R WCI  14
BLACK RVR FLS  CLOUDY    25  16  68 W8        30.29S WCI  16
MEDFORD        FLURRIES  23  15  72 W13G18    30.20R WCI  11
WAUSAU         CLOUDY    25  16  68 W16       30.18R WCI  12
WIS RAPIDS     CLOUDY    25  17  72 NW14      30.25R WCI  13
MARSHFIELD     FLURRIES  23  15  71 NW17G24   30.22R WCI   9
RICE LAKE      CLOUDY    24  16  71 NW12G17   30.30S WCI  13
$$

...NORTHEAST IOWA...


CITY           SKY/WX    TMP DP  RH WIND       PRES   REMARKS
WATERLOO       NOT AVBL
DUBUQUE        CLOUDY    20  15  81 W16       30.35R WCI   6
DECORAH        FLURRIES  21  16  79 NW12G18   30.34R WCI   9
MASON CITY     CLOUDY    21  12  68 NW21      30.43S WCI   5
CHARLES CITY   LGT SNOW  21  14  73 NW21G28   30.40S WCI   6
OELWEIN        FLURRIES  21  16  79 NW20      30.39R WCI   6
$$

...ELSEWHERE IN IOWA...


CITY           SKY/WX    TMP DP  RH WIND       PRES   REMARKS
DES MOINES     PTSUNNY   24  10  55 NW21G26   30.50S WCI   9
IOWA CITY      CLOUDY    21  11  65 W18G26    30.47S WCI   6
FORT DODGE     SUNNY     23  12  63 NW17G24   30.48F WCI   9
MARSHALLTOWN   FLURRIES  20  12  71 NW22G30   30.46R WCI   3
CEDAR RAPIDS   CLOUDY    20  15  81 W21       30.42S WCI   4
$$

...NORTHERN ILLINOIS...


CITY           SKY/WX    TMP DP  RH WIND       PRES   REMARKS
CHICAGO-OHARE  FLURRIES  21  13  71 W14G22    30.30R WCI   8
CHICAGO-MIDWAY FLURRIES  21  11  65 W15G26    30.32R WCI   8
MOLINE         CLOUDY    22  12  65 W22G28    30.42R WCI   6
ROCKFORD       NOT AVBL
PEORIA         NOT AVBL
$$

NOTE: "FAIR" INDICATES FEW OR NO CLOUDS BELOW 12,000 FEET WITH NO
SIGNIFICANT WEATHER AND/OR OBSTRUCTIONS TO VISIBILITY. WIND
SPEEDS ARE IN MILES-PER-HOUR.




USA.gov is the U.S. government's official web portal to all federal, state and local government web resources and services.